CubeL

operational
NORAD ID: 47448 Int'l Des: 2021-006 Owner: DLR2 Country: D
LEOCIRCULARRETROGRADESSO
追跡 地上

CubeLについて

説明を読み込み中...

リアルタイム位置

3D地球を読み込み中...

次回通過

高度履歴

Altitude vs Time

uPlot chart will show altitude changes over time

軌道要素

1 47448U 21006AM 26073.37382274 .00011032 00000-0 28417-3 0 9992
2 47448 97.2472 124.9296 0007786 144.6870 215.4893 15.39351352285162
Epoch: Mar 14, 2026 • Age: 10 hours

現在のステータス

高度 469.2 km
速度 7.63 km/s
衛星直下点 -54.11°S, 167.34°W
打ち上げ日 Jan 24, 2021
運用期間 5.1 years
タイプ other

技術仕様

分類 Payload
質量 4.00 kg
乾燥質量 4.00 kg
総質量 4.00 kg
長さ 0.30 m
直径 0.10 m
スパン 0.30 m
形状 Box
製造者 DLR2/GOMSP
バスタイプ Cubesat 3U
フェーズステータス In Orbit
所有者/国 DLR2/D

大規模コンステレーション

Loading constellations...